Weather History for Soldotna, AK

Change the Weather History Date:

Tuesday, April 22, 2014

  Actual Average Record
Temperature  
Mean Temperature 40 °F -  
Max Temperature 55 °F 45 °F 55 °F (2008)
Min Temperature 26 °F 27 °F 9 °F (1975)
Degree Days  
Heating Degree Days 24    
Moisture  
Dew Point 27 °F    
Average Humidity 60    
Maximum Humidity 80    
Minimum Humidity 33    
Precipitation  
Precipitation 0.00 in - - ()
Sea Level Pressure  
Sea Level Pressure 29.83 in    
Wind  
Wind Speed 5 mph (ESE)    
Max Wind Speed 18 mph    
Max Gust Speed 20 mph    
Visibility 10 miles    
Events      
Averages and records for this station are not official NWS values.
T = Trace of Precipitation, MM = Missing Value Source: NWS Daily Summary

Daily Weather History Graph

Daily Weather History Graph

Search for Another Location

Airport:

Trip Planner

Search our weather history database for the weather conditions in past years. The results will help you decide how hot, cold, wet, or windy it might be!

Date:

Astronomy

Apr. 22, 2014 Rise Set
Actual Time 6:24 AM AKDT 9:42 PM AKDT
Civil Twilight 5:34 AM AKDT 10:32 PM AKDT
Nautical Twilight 4:23 AM AKDT 11:44 PM AKDT
Astronomical Twilight 2:35 AM AKDT 1:30 AM AKDT
Moon 4:10 AM AKDT (4/22) 1:09 PM AKDT (4/22)
Length of Visible Light 16h 58m
Length of Day
15h 17m
Last Quarter, 44% of the Moon is Illuminated
Apr 22
Last Quarter
Apr 28
New
May 6
First Quarter
May 14
Full
May 21
Last Quarter

Hourly Weather History & Observations

Time (AKDT) Temp. Windchill Dew Point Humidity Pressure Visibility Wind Dir Wind Speed Gust Speed Precip Events Conditions
12:16 AM 33.8 °F - 24.8 °F 70% 29.93 in 10.0 mi Calm Calm - N/A   Scattered Clouds
12:36 AM 32.0 °F 27.5 °F 24.8 °F 75% 29.93 in 10.0 mi East 4.6 mph - N/A   Mostly Cloudy
12:56 AM 33.8 °F 30.8 °F 24.8 °F 70% 29.93 in 10.0 mi East 3.5 mph - N/A   Scattered Clouds
1:16 AM 33.8 °F - 24.8 °F 70% 29.93 in 10.0 mi Calm Calm - N/A   Clear
1:36 AM 30.2 °F - 23.0 °F 75% 29.93 in 10.0 mi Calm Calm - N/A   Clear
1:56 AM 30.2 °F 26.7 °F 23.0 °F 75% 29.93 in 10.0 mi East 3.5 mph - N/A   Clear
2:16 AM 30.2 °F 26.7 °F 24.8 °F 80% 29.93 in 10.0 mi East 3.5 mph - N/A   Clear
2:36 AM 30.2 °F - 24.8 °F 80% 29.93 in 10.0 mi Calm Calm - N/A   Clear
2:56 AM 28.4 °F 23.3 °F 21.2 °F 74% 29.93 in 10.0 mi East 4.6 mph - N/A   Clear
3:16 AM 30.2 °F 24.3 °F 23.0 °F 75% 29.92 in 10.0 mi East 5.8 mph - N/A   Clear
3:36 AM 30.2 °F 25.4 °F 23.0 °F 75% 29.92 in 10.0 mi East 4.6 mph - N/A   Clear
3:56 AM 30.2 °F 24.3 °F 23.0 °F 75% 29.91 in 10.0 mi East 5.8 mph - N/A   Clear
4:16 AM 30.2 °F 25.4 °F 23.0 °F 75% 29.91 in 10.0 mi ENE 4.6 mph - N/A   Clear
4:36 AM 30.2 °F 25.4 °F 23.0 °F 75% 29.91 in 10.0 mi ENE 4.6 mph - N/A   Clear
4:56 AM 30.2 °F 26.7 °F 23.0 °F 75% 29.91 in 10.0 mi NE 3.5 mph - N/A   Clear
5:16 AM 28.4 °F 24.6 °F 23.0 °F 80% 29.90 in 10.0 mi ENE 3.5 mph - N/A   Clear
5:36 AM 28.4 °F 23.3 °F 23.0 °F 80% 29.90 in 10.0 mi ENE 4.6 mph - N/A   Clear
5:56 AM 28.4 °F 23.3 °F 23.0 °F 80% 29.90 in 10.0 mi ENE 4.6 mph - N/A   Clear
6:16 AM 28.4 °F 22.2 °F 23.0 °F 80% 29.89 in 10.0 mi ENE 5.8 mph - N/A   Clear
6:36 AM 28.4 °F 23.3 °F 21.2 °F 74% 29.89 in 10.0 mi East 4.6 mph - N/A   Clear
6:56 AM 26.6 °F 21.2 °F 21.2 °F 80% 29.89 in 10.0 mi East 4.6 mph - N/A   Clear
7:16 AM 28.4 °F 22.2 °F 21.2 °F 74% 29.88 in 10.0 mi East 5.8 mph - N/A   Clear
7:36 AM 30.2 °F 24.3 °F 23.0 °F 75% 29.88 in 10.0 mi East 5.8 mph - N/A   Clear
7:56 AM 30.2 °F 24.3 °F 23.0 °F 75% 29.88 in 10.0 mi ENE 5.8 mph - N/A   Clear
8:16 AM 32.0 °F 26.4 °F 26.6 °F 80% 29.88 in 10.0 mi East 5.8 mph - N/A   Clear
8:36 AM 33.8 °F 30.8 °F 24.8 °F 70% 29.88 in 10.0 mi East 3.5 mph - N/A   Clear
8:56 AM 37.4 °F 33.8 °F 26.6 °F 65% 29.87 in 10.0 mi East 4.6 mph - N/A   Clear
9:16 AM 39.2 °F 35.0 °F 28.4 °F 65% 29.87 in 10.0 mi East 5.8 mph - N/A   Clear
9:36 AM 42.8 °F 39.3 °F 28.4 °F 57% 29.87 in 10.0 mi East 5.8 mph - N/A   Clear
9:56 AM 44.6 °F 42.2 °F 30.2 °F 57% 29.87 in 10.0 mi East 4.6 mph - N/A   Clear
10:16 AM 48.2 °F - 30.2 °F 50% 29.86 in 10.0 mi ESE 5.8 mph - N/A   Mostly Cloudy
10:36 AM 48.2 °F - 30.2 °F 50% 29.86 in 10.0 mi Calm Calm - N/A   Scattered Clouds
10:56 AM 50.0 °F - 30.2 °F 47% 29.85 in 10.0 mi ENE 4.6 mph - N/A   Clear
11:16 AM 51.8 °F - 28.4 °F 41% 29.84 in 10.0 mi Calm Calm - N/A   Clear
11:36 AM 51.8 °F - 28.4 °F 41% 29.84 in 10.0 mi East 4.6 mph - N/A   Clear
11:56 AM 51.8 °F - 28.4 °F 41% 29.84 in 10.0 mi Calm Calm - N/A   Clear
12:16 PM 53.6 °F - 28.4 °F 38% 29.83 in 10.0 mi ENE 5.8 mph - N/A   Clear
12:36 PM 53.6 °F - 26.6 °F 35% 29.82 in 10.0 mi ENE 5.8 mph - N/A   Clear
12:56 PM 53.6 °F - 26.6 °F 35% 29.82 in 10.0 mi ESE 10.4 mph - N/A   Clear
1:16 PM 55.4 °F - 26.6 °F 33% 29.81 in 10.0 mi NE 3.5 mph - N/A   Clear
1:36 PM 55.4 °F - 26.6 °F 33% 29.81 in 10.0 mi ESE 5.8 mph - N/A   Clear
1:56 PM 53.6 °F - 26.6 °F 35% 29.80 in 10.0 mi East 8.1 mph - N/A   Clear
2:16 PM 53.6 °F - 30.2 °F 41% 29.80 in 10.0 mi West 10.4 mph - N/A   Clear
2:36 PM 55.4 °F - 30.2 °F 38% 29.79 in 10.0 mi West 9.2 mph 17.3 mph N/A   Clear
2:56 PM 53.6 °F - 30.2 °F 41% 29.79 in 10.0 mi WSW 12.7 mph - N/A   Clear
3:16 PM 53.6 °F - 28.4 °F 38% 29.78 in 10.0 mi West 13.8 mph - N/A   Mostly Cloudy
3:36 PM 55.4 °F - 30.2 °F 38% 29.78 in 10.0 mi West 11.5 mph - N/A   Overcast
3:56 PM 55.4 °F - 30.2 °F 38% 29.77 in 10.0 mi WNW 11.5 mph 17.3 mph N/A   Overcast
4:16 PM 55.4 °F - 30.2 °F 38% 29.76 in 10.0 mi NNW 9.2 mph - N/A   Mostly Cloudy
4:36 PM 55.4 °F - 28.4 °F 36% 29.76 in 10.0 mi North 5.8 mph - N/A   Mostly Cloudy
4:56 PM 55.4 °F - 28.4 °F 36% 29.75 in 10.0 mi West 11.5 mph 19.6 mph N/A   Overcast
5:16 PM 50.0 °F - 28.4 °F 43% 29.76 in 10.0 mi West 18.4 mph - N/A   Overcast
5:36 PM 48.2 °F - 30.2 °F 50% 29.76 in 10.0 mi West 17.3 mph - N/A   Overcast
5:56 PM 48.2 °F - 28.4 °F 46% 29.76 in 10.0 mi West 16.1 mph - N/A   Mostly Cloudy
6:16 PM 48.2 °F - 30.2 °F 50% 29.76 in 10.0 mi WSW 17.3 mph - N/A   Mostly Cloudy
6:36 PM 48.2 °F - 30.2 °F 50% 29.75 in 10.0 mi WSW 15.0 mph 19.6 mph N/A   Overcast
6:56 PM 46.4 °F 40.7 °F 32.0 °F 57% 29.75 in 10.0 mi WSW 12.7 mph - N/A   Overcast
7:16 PM 46.4 °F 40.4 °F 32.0 °F 57% 29.75 in 10.0 mi West 13.8 mph 18.4 mph N/A   Mostly Cloudy
7:36 PM 44.6 °F 38.1 °F 32.0 °F 61% 29.75 in 10.0 mi WSW 13.8 mph - N/A   Scattered Clouds
7:56 PM 44.6 °F 38.1 °F 32.0 °F 61% 29.74 in 10.0 mi West 13.8 mph - N/A   Scattered Clouds
8:16 PM 44.6 °F 39.2 °F 32.0 °F 61% 29.74 in 10.0 mi WSW 10.4 mph - N/A   Partly Cloudy
8:36 PM 44.6 °F 38.8 °F 30.2 °F 57% 29.74 in 10.0 mi WSW 11.5 mph - N/A   Partly Cloudy
8:56 PM 42.8 °F 38.6 °F 30.2 °F 61% 29.75 in 10.0 mi SW 6.9 mph - N/A   Mostly Cloudy
9:16 PM 42.8 °F 38.6 °F 30.2 °F 61% 29.75 in 10.0 mi WSW 6.9 mph - N/A   Mostly Cloudy
9:36 PM 41.0 °F 36.4 °F 30.2 °F 65% 29.74 in 10.0 mi SW 6.9 mph - N/A   Scattered Clouds
9:56 PM 41.0 °F 37.1 °F 30.2 °F 65% 29.74 in 10.0 mi WSW 5.8 mph - N/A   Mostly Cloudy
10:16 PM 39.2 °F 34.2 °F 30.2 °F 70% 29.74 in 10.0 mi WSW 6.9 mph - N/A   Mostly Cloudy
10:36 PM 39.2 °F 35.9 °F 30.2 °F 70% 29.74 in 10.0 mi SW 4.6 mph - N/A   Mostly Cloudy
10:56 PM 39.2 °F 35.0 °F 30.2 °F 70% 29.74 in 10.0 mi SW 5.8 mph - N/A   Mostly Cloudy
11:16 PM 39.2 °F 37.0 °F 32.0 °F 75% 29.74 in 10.0 mi SW 3.5 mph - N/A   Overcast
11:36 PM 39.2 °F 35.9 °F 32.0 °F 75% 29.74 in 10.0 mi SW 4.6 mph - N/A   Mostly Cloudy
11:56 PM 37.4 °F 34.9 °F 30.2 °F 75% 29.74 in 10.0 mi SW 3.5 mph - N/A   Partly Cloudy